IAVONS21 Weather Reports


time (UTC)temp
C
wind
direction
speed
KPH
gust
KPH
rain 1hr
cm
rain 24hr
cm
rain mn
cm
humidity
%
barometer
mb
20260505102015 6 254 0.0 0.0 0.00 0.00 0.00 77 1022.1
20260505101513 6 254 0.0 0.0 0.00 0.00 0.00 77 1022.0
20260505101003 6 254 0.0 0.0 0.00 0.00 0.00 77 1022.0
20260505100503 6 254 0.0 0.0 0.00 0.00 0.00 77 1022.0
20260505100013 6 254 0.0 0.0 0.00 0.00 0.00 76 1022.0
20260505095504 6 254 0.0 0.0 0.00 0.00 0.00 76 1022.0
20260505095008 6 254 0.0 0.0 0.00 0.00 0.00 76 1022.0
20260505094513 6 254 0.0 0.0 0.00 0.00 0.00 76 1021.9
20260505094008 7 254 0.0 0.0 0.00 0.00 0.00 75 1021.9
20260505093507 7 254 0.0 0.0 0.00 0.00 0.00 74 1021.8
20260505093016 7 254 0.0 0.0 0.00 0.00 0.00 73 1021.7
20260505092511 7 254 0.0 0.0 0.00 0.00 0.00 73 1021.7
20260505092009 7 254 0.0 3.2 0.00 0.00 0.00 73 1021.8
20260505091527 7 254 0.0 3.2 0.00 0.00 0.00 72 1021.7
20260505091012 8 254 1.6 3.2 0.00 0.00 0.00 72 1021.7
20260505090509 8 243 0.0 4.8 0.00 0.00 0.00 71 1021.8
20260505090038 8 249 1.6 4.8 0.00 0.00 0.00 71 1021.7
20260505085506 8 245 1.6 6.4 0.00 0.00 0.00 71 1021.7
20260505085004 8 243 1.6 6.4 0.00 0.00 0.00 70 1021.7
20260505084512 8 231 0.0 0.0 0.00 0.00 0.00 70 1021.7
20260505084004 8 231 0.0 0.0 0.00 0.00 0.00 70 1021.6
20260505083507 8 231 0.0 0.0 0.00 0.00 0.00 70 1021.4
20260505083016 8 235 0.0 0.0 0.00 0.00 0.00 69 1021.3
20260505082507 8 235 0.0 0.0 0.00 0.00 0.00 69 1021.2
20260505082007 8 235 0.0 1.6 0.00 0.00 0.00 69 1021.0
20260505081518 8 229 0.0 1.6 0.00 0.00 0.00 69 1021.0
20260505081007 8 229 0.0 0.0 0.00 0.00 0.00 69 1020.9
20260505080507 8 229 0.0 0.0 0.00 0.00 0.00 69 1020.8
20260505080023 8 229 0.0 0.0 0.00 0.00 0.00 69 1020.8
20260505075512 9 229 0.0 1.6 0.00 0.00 0.00 68 1020.7
20260505075011 9 231 0.0 4.8 0.00 0.00 0.00 68 1020.7
20260505074527 9 229 0.0 4.8 0.00 0.00 0.00 68 1020.6
20260505074004 9 225 0.0 4.8 0.00 0.00 0.00 68 1020.5
20260505073504 9 180 0.0 0.0 0.00 0.00 0.00 68 1020.5
20260505073024 10 193 0.0 3.2 0.00 0.00 0.00 67 1020.5
20260505072511 10 193 0.0 3.2 0.00 0.00 0.00 67 1020.4
20260505072009 10 225 0.0 4.8 0.00 0.00 0.00 67 1020.4
20260505071518 10 235 0.0 4.8 0.00 0.00 0.00 66 1020.2
20260505071008 10 245 0.0 6.4 0.00 0.00 0.00 65 1020.2
20260505070512 10 239 1.6 6.4 0.00 0.00 0.00 65 1020.3
20260505070023 11 211 0.0 8.0 0.00 0.00 0.00 65 1020.3
20260505065507 11 185 3.2 8.0 0.00 0.00 0.00 64 1020.2
20260505065008 11 216 1.6 8.0 0.00 0.00 0.00 64 1020.2
20260505064538 11 208 4.8 8.0 0.00 0.00 0.00 63 1020.1
20260505064009 11 237 0.0 6.4 0.00 0.00 0.00 65 1020.2
20260505063511 11 225 1.6 6.4 0.00 0.00 0.00 65 1020.1
20260505063026 11 197 0.0 8.0 0.00 0.00 0.00 65 1020.0
20260505062510 11 239 3.2 11.3 0.00 0.00 0.00 64 1019.6
20260505062011 11 192 6.4 12.9 0.00 0.00 0.00 64 1019.5
20260505061529 11 258 4.8 12.9 0.00 0.00 0.00 64 1019.5
20260505061008 11 250 6.4 19.3 0.00 0.00 0.00 63 1019.4
20260505060508 12 256 4.8 19.3 0.00 0.00 0.00 62 1019.5
20260505060019 12 224 4.8 14.5 0.00 0.00 0.00 63 1019.5
20260505055512 12 238 6.4 11.3 0.00 0.00 0.00 62 1019.5
20260505055010 12 249 4.8 14.5 0.00 0.00 0.00 60 1019.4
20260505054542 12 256 4.8 14.5 0.00 0.00 0.00 62 1019.4
20260505054014 12 244 3.2 8.0 0.00 0.00 0.00 62 1019.3
20260505053509 12 220 1.6 8.0 0.00 0.00 0.00 64 1019.3
20260505053031 12 164 4.8 11.3 0.00 0.00 0.00 63 1019.2
20260505052510 12 134 4.8 11.3 0.00 0.00 0.00 62 1019.2
20260505052011 12 220 3.2 9.7 0.00 0.00 0.00 61 1019.1
20260505051528 12 180 3.2 9.7 0.00 0.00 0.00 62 1019.1
20260505051014 12 222 3.2 11.3 0.00 0.00 0.00 61 1019.1
20260505050507 12 168 4.8 11.3 0.00 0.00 0.00 59 1018.9
20260505041511 13 253 3.2 9.7 0.00 0.00 0.00 57 1018.3
20260505041004 12 245 1.6 9.7 0.00 0.00 0.00 58 1018.2
20260505040506 12 207 3.2 8.0 0.00 0.00 0.00 57 1018.2
20260505040008 12 180 3.2 8.0 0.00 0.00 0.00 58 1018.2
20260505035504 12 265 3.2 8.0 0.00 0.00 0.00 57 1018.2
20260505035003 12 234 3.2 8.0 0.00 0.00 0.00 58 1018.2
20260505034511 12 258 4.8 14.5 0.00 0.00 0.00 57 1018.2
20260505034009 12 260 8.0 16.1 0.00 0.00 0.00 55 1018.1
20260505033504 12 245 4.8 16.1 0.00 0.00 0.00 58 1018.1
20260505033003 12 247 8.0 16.1 0.00 0.00 0.00 58 1018.1
20260505032503 12 248 6.4 16.1 0.00 0.00 0.00 58 1018.2
20260505032003 12 263 6.4 16.1 0.00 0.00 0.00 57 1018.2
20260505031524 12 252 3.2 16.1 0.00 0.00 0.00 58 1018.2
20260505031003 12 287 6.4 16.1 0.00 0.00 0.00 59 1018.2
20260505030504 12 255 8.0 14.5 0.00 0.00 0.00 58 1018.1
20260505030009 12 235 6.4 14.5 0.00 0.00 0.00 56 1018.2
20260505025504 12 243 6.4 14.5 0.00 0.00 0.00 56 1018.2
20260505025004 12 262 6.4 11.3 0.00 0.00 0.00 58 1018.2
20260505024517 12 292 0.0 9.7 0.00 0.00 0.00 57 1018.2
20260505024008 12 239 3.2 9.7 0.00 0.00 0.00 58 1018.2
20260505023504 12 197 1.6 11.3 0.00 0.00 0.00 56 1018.2
20260505023012 12 279 3.2 11.3 0.00 0.00 0.00 59 1018.2
20260505022504 12 222 3.2 11.3 0.00 0.00 0.00 57 1018.3
20260505022007 12 256 1.6 11.3 0.00 0.00 0.00 59 1018.3
20260505021504 12 211 1.6 11.3 0.00 0.00 0.00 57 1018.3
20260505021007 12 232 1.6 11.3 0.00 0.00 0.00 55 1018.3
20260505020504 12 264 1.6 9.7 0.00 0.00 0.00 58 1018.3
20260505020024 12 149 4.8 9.7 0.00 0.00 0.00 58 1018.4
20260505015504 12 218 3.2 11.3 0.00 0.00 0.00 59 1018.5
20260505015007 12 243 3.2 12.9 0.00 0.00 0.00 60 1018.7
20260505014509 12 216 6.4 12.9 0.00 0.00 0.00 57 1018.8
20260505014008 12 246 4.8 14.5 0.00 0.00 0.00 58 1018.8
20260505013509 12 293 4.8 14.5 0.00 0.00 0.00 54 1018.8
20260505013010 12 216 4.8 12.9 0.00 0.00 0.00 56 1018.8
20260505012505 12 233 4.8 11.3 0.00 0.00 0.00 54 1018.8
20260505012006 12 346 1.6 11.3 0.00 0.00 0.00 56 1018.8
20260505011510 12 246 3.2 9.7 0.00 0.00 0.00 58 1018.7
20260505011005 11 235 1.6 11.3 0.00 0.00 0.00 57 1018.7
20260505010508 11 239 3.2 11.3 0.00 0.00 0.00 57 1018.7
20260505010007 11 253 4.8 14.5 0.00 0.00 0.00 57 1018.6
20260505005503 11 268 4.8 14.5 0.00 0.00 0.00 59 1018.6
20260505005007 11 267 8.0 12.9 0.00 0.00 0.00 57 1018.6
20260505004526 11 268 3.2 14.5 0.00 0.00 0.00 59 1018.6
20260505004005 11 256 3.2 14.5 0.00 0.00 0.00 59 1018.6
20260505003509 11 263 3.2 6.4 0.00 0.00 0.00 57 1018.5
20260505003015 11 244 0.0 6.4 0.00 0.00 0.00 59 1018.5
20260505002514 11 331 1.6 4.8 0.00 0.00 0.00 58 1018.5
20260505002012 11 57 1.6 4.8 0.00 0.00 0.00 61 1018.3
20260505001514 10 224 1.6 12.9 0.00 0.00 0.00 62 1018.3
20260505001010 10 15 6.4 16.1 0.00 0.00 0.00 60 1018.1
20260505000508 10 29 9.7 16.1 0.00 0.00 0.00 61 1018.0
20260505000033 11 67 9.7 16.1 0.00 0.00 0.00 64 1018.0
20260504235508 10 114 6.4 14.5 0.00 0.00 0.00 65 1018.0
20260504235006 10 143 4.8 11.3 0.00 0.00 0.00 61 1018.0
20260504234508 10 246 3.2 11.3 0.00 0.00 0.00 62 1017.9
20260504234006 10 153 1.6 8.0 0.00 0.00 0.00 62 1017.9
20260504233508 10 233 3.2 9.7 0.00 0.00 0.00 64 1017.8
20260504233012 10 241 4.8 11.3 0.00 0.00 0.00 63 1017.7
20260504232507 9 200 3.2 11.3 0.00 0.00 0.00 63 1017.8
20260504232008 9 237 3.2 6.4 0.00 0.00 0.00 65 1017.9
20260504231517 9 243 3.2 6.4 0.00 0.00 0.00 64 1017.9
20260504231007 9 249 3.2 6.4 0.00 0.00 0.00 64 1017.9
20260504230505 8 241 1.6 8.0 0.00 0.00 0.00 64 1017.8
20260504230019 9 252 3.2 8.0 0.00 0.00 0.00 65 1017.8
20260504225507 9 256 1.6 6.4 0.00 0.00 0.00 64 1017.7
20260504225010 9 201 0.0 4.8 0.00 0.03 0.00 64 1017.9
20260504224516 9 164 0.0 4.8 0.00 0.03 0.00 65 1017.8
20260504224011 9 168 1.6 4.8 0.00 0.03 0.00 66 1017.9
20260504223508 8 168 0.0 4.8 0.00 0.03 0.00 66 1017.9
20260504223020 8 185 0.0 6.4 0.00 0.03 0.00 66 1017.7
20260504222507 8 246 1.6 8.0 0.00 0.03 0.00 67 1017.6
20260504222007 8 262 3.2 11.3 0.00 0.03 0.00 67 1017.5
20260504221517 7 244 3.2 12.9 0.00 0.03 0.00 68 1017.4
20260504221009 7 250 6.4 16.1 0.00 0.03 0.00 68 1017.3
20260504220507 7 256 6.4 16.1 0.00 0.03 0.00 68 1017.2
20260504220020 7 204 4.8 14.5 0.00 0.08 0.00 69 1017.1
20260504215509 7 229 1.6 16.1 0.00 0.08 0.00 70 1017.0
20260504215009 7 271 4.8 17.7 0.00 0.08 0.00 71 1016.8
20260504214522 7 267 11.3 17.7 0.00 0.08 0.00 71 1016.7
20260504214009 7 264 11.3 22.5 0.00 0.08 0.00 71 1016.6
20260504213506 7 260 14.5 22.5 0.00 0.08 0.00 71 1016.4
20260504213023 7 266 14.5 19.3 0.00 0.08 0.00 71 1016.4
20260504212507 7 266 12.9 22.5 0.00 0.08 0.00 71 1016.3
20260504212008 7 266 16.1 25.7 0.00 0.08 0.00 71 1016.2
20260504211520 7 271 19.3 25.7 0.00 0.08 0.00 71 1016.2
20260504211006 7 267 16.1 22.5 0.00 0.08 0.00 71 1016.4
20260504210506 7 267 12.9 22.5 0.00 0.08 0.00 71 1016.4
20260504210022 7 276 14.5 22.5 0.00 0.08 0.00 71 1016.4
20260504205506 7 270 14.5 20.9 0.00 0.08 0.00 71 1016.2
20260504205010 7 263 12.9 25.7 0.00 0.08 0.00 72 1016.1
20260504204521 7 268 16.1 25.7 0.00 0.08 0.00 72 1016.1
20260504204009 6 284 6.4 12.9 0.00 0.08 0.00 73 1016.3
20260504203514 7 260 0.0 4.8 0.00 0.08 0.00 74 1016.3
20260504203027 7 247 0.0 11.3 0.00 0.08 0.00 73 1016.4
20260504202513 7 240 0.0 12.9 0.00 0.08 0.00 74 1016.2
20260504202007 7 310 6.4 14.5 0.00 0.08 0.00 74 1016.3
20260504201521 7 266 3.2 17.7 0.00 0.08 0.00 73 1016.0
20260504201008 7 278 11.3 25.7 0.00 0.08 0.00 73 1015.8
20260504200508 7 270 12.9 25.7 0.00 0.08 0.00 73 1015.8
20260504200022 7 254 9.7 20.9 0.00 0.08 0.00 73 1015.7
20260504195508 7 258 11.3 20.9 0.00 0.08 0.00 73 1015.7
20260504195006 7 274 11.3 27.4 0.00 0.08 0.00 73 1015.7
20260504194518 7 266 14.5 27.4 0.00 0.08 0.00 73 1015.8
20260504194009 7 252 16.1 27.4 0.00 0.08 0.00 72 1015.7
20260504193502 7 254 17.7 30.6 0.00 0.08 0.00 72 1015.7
20260504193004 7 271 17.7 30.6 0.00 0.08 0.00 72 1015.7
20260504192505 7 291 12.9 20.9 0.00 0.08 0.00 73 1015.6
20260504192003 7 258 9.7 20.9 0.00 0.08 0.00 73 1015.7
20260504191510 7 272 11.3 25.7 0.00 0.08 0.00 74 1015.7
20260504191008 7 260 12.9 25.7 0.00 0.08 0.00 73 1015.7
20260504190511 7 276 8.0 25.7 0.00 0.08 0.00 74 1015.6
20260504190011 7 256 9.7 29.0 0.00 0.08 0.00 74 1015.7
20260504185508 7 251 14.5 29.0 0.00 0.08 0.00 73 1015.5
20260504185004 7 287 12.9 29.0 0.00 0.08 0.00 74 1015.2
20260504184518 7 256 19.3 29.0 0.00 0.08 0.00 74 1015.1
20260504184011 7 278 16.1 27.4 0.00 0.08 0.00 73 1014.9
20260504183510 7 267 16.1 27.4 0.00 0.08 0.00 73 1015.0
20260504183020 7 268 17.7 27.4 0.00 0.08 0.00 72 1014.9
20260504182510 7 278 16.1 25.7 0.00 0.08 0.00 72 1015.1
20260504182011 7 286 14.5 25.7 0.00 0.08 0.00 71 1015.1
20260504181504 7 276 19.3 25.7 0.00 0.08 0.00 70 1015.0
20260504181004 7 277 16.1 25.7 0.00 0.08 0.00 70 1015.1
20260504180503 7 278 16.1 37.0 0.00 0.08 0.00 70 1015.0
20260504180010 7 269 14.5 37.0 0.00 0.08 0.00 69 1015.0
20260504175512 7 262 16.1 30.6 0.00 0.08 0.00 70 1014.8
20260504175005 7 266 11.3 17.7 0.00 0.08 0.00 70 1014.9
20260504174514 7 274 11.3 20.9 0.00 0.08 0.00 70 1014.9
20260504174005 7 265 9.7 20.9 0.00 0.08 0.00 70 1014.6
20260504173509 7 274 11.3 19.3 0.00 0.08 0.00 71 1014.7
20260504173019 7 278 4.8 12.9 0.00 0.08 0.00 71 1014.6
20260504172507 7 272 6.4 14.5 0.00 0.08 0.00 71 1014.5
20260504172009 7 276 6.4 17.7 0.00 0.08 0.00 70 1014.5
20260504171524 7 314 4.8 20.9 0.00 0.08 0.00 71 1014.4
20260504171011 7 266 12.9 20.9 0.00 0.08 0.00 70 1014.5
20260504170508 7 282 12.9 19.3 0.00 0.08 0.00 71 1014.5
20260504151007 8 286 25.7 40.2 0.00 0.33 0.00 71 1013.3
20260504150511 8 232 24.1 59.5 0.00 0.36 0.00 71 1013.3
20260504141008 8 297 24.1 40.2 0.00 0.46 0.00 68 1013.8
20260504140508 8 274 24.1 40.2 0.00 0.46 0.00 68 1013.9
20260504130508 8 291 17.7 33.8 0.00 0.64 0.48 66 1014.6
20260504110506 8 264 11.3 29.0 0.00 0.79 0.48 67 1015.5